| time (UTC) | temp F | wind direction | speed knots | gust knots | rain 1hr in | rain 24hr in | rain mn in | humidity % | barometer mb |
| 20260504030901 | 54 | 243 | 1.7 | 5.2 | 0.00 | 0.00 | 0.00 | 55 | 1013.5 |
| 20260504030601 | 54 | 236 | 2.6 | 6.1 | 0.00 | 0.00 | 0.00 | 54 | 1013.5 |
| 20260504030001 | 54 | 238 | 1.7 | 6.1 | 0.00 | 0.00 | 0.00 | 55 | 1013.5 |
| 20260504025701 | 54 | 254 | 0.9 | 6.1 | 0.00 | 0.00 | 0.00 | 54 | 1013.5 |
| 20260504025401 | 53 | 258 | 1.7 | 3.5 | 0.00 | 0.00 | 0.00 | 55 | 1013.5 |
| 20260504025101 | 53 | 240 | 1.7 | 7.0 | 0.00 | 0.00 | 0.00 | 55 | 1013.6 |
| 20260504024502 | 54 | 240 | 2.6 | 7.0 | 0.00 | 0.00 | 0.00 | 54 | 1013.7 |
| 20260504024201 | 54 | 251 | 2.6 | 7.8 | 0.00 | 0.00 | 0.00 | 55 | 1013.7 |
| 20260504023901 | 54 | 253 | 2.6 | 7.8 | 0.00 | 0.00 | 0.00 | 55 | 1013.6 |
| 20260504023601 | 54 | 255 | 2.6 | 7.8 | 0.00 | 0.00 | 0.00 | 54 | 1013.7 |
| 20260504023301 | 54 | 263 | 3.5 | 7.8 | 0.00 | 0.00 | 0.00 | 54 | 1013.8 |
| 20260504022701 | 54 | 269 | 4.3 | 9.6 | 0.00 | 0.00 | 0.00 | 54 | 1013.8 |
| 20260504022101 | 53 | 268 | 3.5 | 7.8 | 0.00 | 0.00 | 0.00 | 54 | 1013.8 |
| 20260504021802 | 53 | 264 | 3.5 | 7.8 | 0.00 | 0.00 | 0.00 | 55 | 1013.7 |
| 20260504021502 | 54 | 266 | 4.3 | 7.8 | 0.00 | 0.00 | 0.00 | 54 | 1013.8 |
| 20260504021201 | 54 | 264 | 5.2 | 8.7 | 0.00 | 0.00 | 0.00 | 54 | 1013.7 |
| 20260504020901 | 53 | 265 | 5.2 | 11.3 | 0.00 | 0.00 | 0.00 | 54 | 1013.7 |
| 20260504020302 | 53 | 260 | 6.1 | 12.2 | 0.00 | 0.00 | 0.00 | 54 | 1013.8 |
| 20260504020002 | 53 | 256 | 7.0 | 12.2 | 0.00 | 0.00 | 0.00 | 55 | 1013.8 |
| 20260504015701 | 53 | 254 | 7.0 | 12.2 | 0.00 | 0.00 | 0.00 | 56 | 1013.8 |
| 20260504015401 | 52 | 250 | 7.0 | 12.2 | 0.00 | 0.00 | 0.00 | 57 | 1013.8 |
| 20260504015101 | 51 | 253 | 6.1 | 12.2 | 0.00 | 0.00 | 0.00 | 59 | 1013.7 |
| 20260504014801 | 50 | 252 | 5.2 | 11.3 | 0.00 | 0.00 | 0.00 | 63 | 1013.7 |
| 20260504014502 | 49 | 253 | 3.5 | 11.3 | 0.00 | 0.00 | 0.00 | 67 | 1013.7 |
| 20260504013901 | 47 | 247 | 0.9 | 9.6 | 0.00 | 0.00 | 0.00 | 71 | 1013.4 |
| 20260504013601 | 47 | 0 | 0.0 | 1.7 | 0.00 | 0.00 | 0.00 | 70 | 1013.3 |
| 20260504013301 | 48 | 0 | 0.0 | 0.0 | 0.00 | 0.00 | 0.00 | 70 | 1013.2 |
| 20260504012401 | 48 | 0 | 0.0 | 1.7 | 0.00 | 0.00 | 0.00 | 68 | 1013.2 |
| 20260504012101 | 49 | 0 | 0.0 | 1.7 | 0.00 | 0.00 | 0.00 | 67 | 1013.2 |
| 20260504011802 | 49 | 0 | 0.0 | 1.7 | 0.00 | 0.00 | 0.00 | 68 | 1013.2 |
| 20260504011501 | 49 | 139 | 0.9 | 1.7 | 0.00 | 0.00 | 0.00 | 67 | 1013.2 |
| 20260504011201 | 49 | 0 | 0.0 | 1.7 | 0.00 | 0.00 | 0.00 | 66 | 1013.3 |
| 20260504010902 | 50 | 0 | 0.0 | 1.7 | 0.00 | 0.00 | 0.00 | 65 | 1013.3 |
| 20260504010601 | 50 | 0 | 0.0 | 1.7 | 0.00 | 0.00 | 0.00 | 64 | 1013.3 |
| 20260504010301 | 50 | 0 | 0.0 | 1.7 | 0.00 | 0.00 | 0.00 | 66 | 1013.3 |
| 20260504010002 | 50 | 152 | 0.9 | 1.7 | 0.00 | 0.00 | 0.00 | 67 | 1013.3 |
| 20260504005701 | 50 | 157 | 0.9 | 2.6 | 0.00 | 0.00 | 0.00 | 64 | 1013.3 |
| 20260504005101 | 51 | 0 | 0.0 | 2.6 | 0.00 | 0.00 | 0.00 | 60 | 1013.2 |
| 20260504004802 | 52 | 0 | 0.0 | 1.7 | 0.00 | 0.00 | 0.00 | 59 | 1013.2 |
| 20260504003902 | 53 | 0 | 0.0 | 1.7 | 0.00 | 0.00 | 0.00 | 55 | 1013.2 |
| 20260504003601 | 54 | 188 | 0.9 | 3.5 | 0.00 | 0.00 | 0.00 | 52 | 1013.2 |
| 20260504003301 | 54 | 198 | 0.9 | 3.5 | 0.00 | 0.00 | 0.00 | 50 | 1013.1 |
| 20260504003002 | 55 | 202 | 0.9 | 3.5 | 0.00 | 0.00 | 0.00 | 46 | 1013.1 |
| 20260504002401 | 55 | 0 | 0.0 | 1.7 | 0.00 | 0.00 | 0.00 | 47 | 1013.1 |
| 20260504002102 | 55 | 0 | 0.0 | 1.7 | 0.00 | 0.00 | 0.00 | 46 | 1013.1 |
| 20260504001801 | 56 | 240 | 0.9 | 2.6 | 0.00 | 0.00 | 0.00 | 46 | 1013.2 |
| 20260504001502 | 56 | 218 | 1.7 | 3.5 | 0.00 | 0.00 | 0.00 | 47 | 1013.2 |
| 20260504001202 | 56 | 224 | 1.7 | 3.5 | 0.00 | 0.00 | 0.00 | 45 | 1013.2 |
| 20260504000901 | 56 | 226 | 1.7 | 5.2 | 0.00 | 0.00 | 0.00 | 44 | 1013.2 |
| 20260504000602 | 56 | 236 | 1.7 | 5.2 | 0.00 | 0.00 | 0.00 | 44 | 1013.2 |
| 20260503235701 | 56 | 253 | 2.6 | 7.0 | 0.00 | 0.00 | 0.00 | 44 | 1013.1 |
| 20260503235101 | 57 | 248 | 4.3 | 8.7 | 0.00 | 0.00 | 0.00 | 44 | 1013.3 |
| 20260503234802 | 57 | 250 | 4.3 | 8.7 | 0.00 | 0.00 | 0.00 | 43 | 1013.3 |
| 20260503234501 | 57 | 256 | 4.3 | 8.7 | 0.00 | 0.00 | 0.00 | 43 | 1013.3 |
| 20260503233901 | 57 | 254 | 5.2 | 9.6 | 0.00 | 0.00 | 0.00 | 43 | 1013.4 |
| 20260503233602 | 57 | 252 | 6.1 | 10.4 | 0.00 | 0.00 | 0.00 | 42 | 1013.4 |
| 20260503233301 | 57 | 255 | 6.1 | 10.4 | 0.00 | 0.00 | 0.00 | 42 | 1013.5 |
| 20260503233002 | 57 | 251 | 5.2 | 10.4 | 0.00 | 0.00 | 0.00 | 42 | 1013.4 |
| 20260503232701 | 57 | 248 | 5.2 | 9.6 | 0.00 | 0.00 | 0.00 | 42 | 1013.4 |
| 20260503232101 | 58 | 250 | 6.1 | 14.8 | 0.00 | 0.00 | 0.00 | 43 | 1013.5 |
| 20260503231802 | 58 | 255 | 7.0 | 14.8 | 0.00 | 0.00 | 0.00 | 42 | 1013.4 |
| 20260503231501 | 58 | 258 | 7.0 | 14.8 | 0.00 | 0.00 | 0.00 | 42 | 1013.5 |
| 20260503231202 | 58 | 258 | 7.0 | 13.9 | 0.00 | 0.00 | 0.00 | 42 | 1013.5 |
| 20260503230901 | 58 | 252 | 6.1 | 13.0 | 0.00 | 0.00 | 0.00 | 42 | 1013.6 |
| 20260503230602 | 58 | 248 | 6.1 | 13.0 | 0.00 | 0.00 | 0.00 | 43 | 1013.6 |
| 20260503230302 | 58 | 257 | 6.1 | 12.2 | 0.00 | 0.00 | 0.00 | 41 | 1013.7 |
| 20260503230002 | 58 | 262 | 6.1 | 12.2 | 0.00 | 0.00 | 0.00 | 42 | 1013.6 |
| 20260503225702 | 58 | 262 | 6.1 | 13.0 | 0.00 | 0.00 | 0.00 | 41 | 1013.6 |
| 20260503225401 | 58 | 259 | 5.2 | 13.0 | 0.00 | 0.00 | 0.00 | 41 | 1013.6 |
| 20260503225102 | 58 | 255 | 5.2 | 13.0 | 0.00 | 0.00 | 0.00 | 41 | 1013.7 |
| 20260503224801 | 58 | 254 | 6.1 | 13.9 | 0.00 | 0.00 | 0.00 | 42 | 1013.8 |
| 20260503224502 | 58 | 256 | 6.1 | 13.9 | 0.00 | 0.00 | 0.00 | 42 | 1013.7 |
| 20260503223901 | 58 | 256 | 7.0 | 13.9 | 0.00 | 0.00 | 0.00 | 40 | 1013.7 |
| 20260503223602 | 58 | 255 | 7.0 | 13.9 | 0.00 | 0.00 | 0.00 | 41 | 1013.8 |
| 20260503223301 | 58 | 248 | 7.8 | 13.9 | 0.00 | 0.00 | 0.00 | 42 | 1013.8 |
| 20260503222701 | 59 | 250 | 8.7 | 16.5 | 0.00 | 0.00 | 0.00 | 40 | 1013.9 |
| 20260503222402 | 59 | 254 | 7.8 | 16.5 | 0.00 | 0.00 | 0.00 | 40 | 1013.9 |
| 20260503222102 | 59 | 255 | 6.1 | 16.5 | 0.00 | 0.00 | 0.00 | 40 | 1014.0 |
| 20260503221802 | 60 | 257 | 6.1 | 16.5 | 0.00 | 0.00 | 0.00 | 39 | 1013.9 |
| 20260503221502 | 60 | 254 | 6.1 | 10.4 | 0.00 | 0.00 | 0.00 | 40 | 1013.9 |
| 20260503221202 | 60 | 253 | 7.0 | 11.3 | 0.00 | 0.00 | 0.00 | 43 | 1013.9 |
| 20260503220902 | 60 | 257 | 7.0 | 11.3 | 0.00 | 0.00 | 0.00 | 40 | 1013.9 |
| 20260503220301 | 60 | 259 | 7.0 | 13.9 | 0.00 | 0.00 | 0.00 | 39 | 1013.8 |
| 20260503220001 | 60 | 258 | 7.0 | 13.9 | 0.00 | 0.00 | 0.00 | 40 | 1013.9 |
| 20260503215702 | 60 | 256 | 7.0 | 13.9 | 0.00 | 0.00 | 0.00 | 40 | 1013.8 |
| 20260503215402 | 60 | 252 | 7.0 | 11.3 | 0.00 | 0.00 | 0.00 | 40 | 1013.8 |
| 20260503215102 | 60 | 255 | 7.8 | 17.4 | 0.00 | 0.00 | 0.00 | 43 | 1013.9 |
| 20260503214502 | 59 | 253 | 7.8 | 17.4 | 0.00 | 0.00 | 0.00 | 40 | 1013.8 |
| 20260503214201 | 59 | 253 | 6.1 | 15.6 | 0.00 | 0.00 | 0.00 | 41 | 1013.9 |
| 20260503213302 | 60 | 246 | 7.0 | 13.0 | 0.00 | 0.00 | 0.00 | 41 | 1013.9 |
| 20260503213002 | 60 | 245 | 7.8 | 13.9 | 0.00 | 0.00 | 0.00 | 40 | 1013.9 |
| 20260503212402 | 60 | 249 | 7.8 | 13.9 | 0.00 | 0.00 | 0.00 | 40 | 1013.9 |
| 20260503211802 | 60 | 248 | 5.2 | 14.8 | 0.00 | 0.00 | 0.00 | 40 | 1013.9 |
| 20260503211502 | 60 | 249 | 5.2 | 14.8 | 0.00 | 0.00 | 0.00 | 40 | 1013.9 |
| 20260503211202 | 60 | 240 | 6.1 | 12.2 | 0.00 | 0.00 | 0.00 | 40 | 1013.9 |
| 20260503210902 | 60 | 248 | 7.0 | 13.9 | 0.00 | 0.00 | 0.00 | 39 | 1013.9 |
| 20260503210603 | 60 | 244 | 7.0 | 13.9 | 0.00 | 0.00 | 0.00 | 39 | 1013.8 |
| 20260503210302 | 60 | 256 | 7.8 | 13.9 | 0.00 | 0.00 | 0.00 | 40 | 1013.8 |
| 20260503210002 | 61 | 256 | 7.8 | 13.9 | 0.00 | 0.00 | 0.00 | 38 | 1013.9 |
| 20260503205402 | 61 | 250 | 8.7 | 15.6 | 0.00 | 0.00 | 0.00 | 40 | 1013.8 |
| 20260503205102 | 60 | 257 | 8.7 | 15.6 | 0.00 | 0.00 | 0.00 | 41 | 1013.8 |
| 20260503204801 | 61 | 266 | 7.8 | 15.6 | 0.00 | 0.00 | 0.00 | 41 | 1013.8 |
| 20260503204502 | 60 | 268 | 7.0 | 14.8 | 0.00 | 0.00 | 0.00 | 41 | 1013.8 |
| 20260503204202 | 60 | 254 | 5.2 | 14.8 | 0.00 | 0.00 | 0.00 | 41 | 1013.9 |
| 20260503203902 | 59 | 246 | 6.1 | 15.6 | 0.00 | 0.00 | 0.00 | 39 | 1013.9 |
| 20260503203602 | 60 | 254 | 7.0 | 15.6 | 0.00 | 0.00 | 0.00 | 40 | 1014.0 |
| 20260503203302 | 60 | 256 | 8.7 | 15.6 | 0.00 | 0.00 | 0.00 | 41 | 1013.9 |
| 20260503203002 | 61 | 263 | 8.7 | 15.6 | 0.00 | 0.00 | 0.00 | 40 | 1013.9 |
| 20260503202702 | 61 | 260 | 7.8 | 13.9 | 0.00 | 0.00 | 0.00 | 44 | 1013.9 |
| 20260503202402 | 61 | 268 | 7.8 | 13.0 | 0.00 | 0.00 | 0.00 | 39 | 1014.0 |
| 20260503202102 | 60 | 261 | 7.0 | 15.6 | 0.00 | 0.00 | 0.00 | 40 | 1014.0 |
| 20260503201802 | 60 | 251 | 6.1 | 15.6 | 0.00 | 0.00 | 0.00 | 39 | 1014.1 |
| 20260503201202 | 60 | 245 | 4.3 | 12.2 | 0.00 | 0.00 | 0.00 | 40 | 1014.3 |
| 20260503200602 | 60 | 247 | 4.3 | 10.4 | 0.00 | 0.00 | 0.00 | 41 | 1014.2 |
| 20260503200302 | 60 | 250 | 6.1 | 10.4 | 0.00 | 0.00 | 0.00 | 42 | 1014.5 |
| 20260503195703 | 60 | 252 | 8.7 | 16.5 | 0.00 | 0.00 | 0.00 | 41 | 1014.5 |
| 20260503195402 | 60 | 251 | 9.6 | 18.2 | 0.00 | 0.00 | 0.00 | 42 | 1014.6 |
| 20260503194802 | 61 | 242 | 7.8 | 18.2 | 0.00 | 0.00 | 0.00 | 40 | 1014.8 |
| 20260503193902 | 60 | 242 | 8.7 | 15.6 | 0.00 | 0.00 | 0.00 | 38 | 1014.9 |
| 20260503193302 | 60 | 265 | 10.4 | 17.4 | 0.00 | 0.00 | 0.00 | 39 | 1014.9 |
| 20260503192703 | 59 | 266 | 9.6 | 17.4 | 0.00 | 0.00 | 0.00 | 40 | 1015.1 |
| 20260503192102 | 60 | 264 | 7.8 | 13.9 | 0.00 | 0.00 | 0.00 | 39 | 1015.0 |
| 20260503191802 | 60 | 267 | 7.8 | 13.9 | 0.00 | 0.00 | 0.00 | 39 | 1015.1 |
| 20260503191502 | 60 | 268 | 7.0 | 13.0 | 0.00 | 0.00 | 0.00 | 42 | 1015.1 |
| 20260503191202 | 59 | 268 | 7.0 | 12.2 | 0.00 | 0.00 | 0.00 | 38 | 1015.2 |
| 20260503190902 | 60 | 270 | 7.0 | 13.9 | 0.00 | 0.00 | 0.00 | 40 | 1015.2 |
| 20260503190602 | 60 | 263 | 7.0 | 13.9 | 0.00 | 0.00 | 0.00 | 38 | 1015.4 |
| 20260503190302 | 60 | 261 | 7.0 | 13.9 | 0.00 | 0.00 | 0.00 | 40 | 1015.3 |
| 20260503190003 | 60 | 255 | 6.1 | 12.2 | 0.00 | 0.00 | 0.00 | 39 | 1015.3 |
| 20260503185703 | 60 | 256 | 6.1 | 12.2 | 0.00 | 0.00 | 0.00 | 39 | 1015.3 |
| 20260503185402 | 60 | 253 | 7.0 | 13.9 | 0.00 | 0.00 | 0.00 | 41 | 1015.4 |
| 20260503185102 | 59 | 249 | 7.8 | 13.9 | 0.00 | 0.00 | 0.00 | 37 | 1015.4 |
| 20260503184802 | 60 | 249 | 7.0 | 13.9 | 0.00 | 0.00 | 0.00 | 40 | 1015.6 |
| 20260503184502 | 60 | 258 | 7.0 | 13.9 | 0.00 | 0.00 | 0.00 | 39 | 1015.5 |
| 20260503184202 | 60 | 266 | 7.8 | 14.8 | 0.00 | 0.00 | 0.00 | 38 | 1015.5 |
| 20260503183902 | 61 | 267 | 8.7 | 16.5 | 0.00 | 0.00 | 0.00 | 37 | 1015.6 |
| 20260503183602 | 60 | 265 | 8.7 | 18.2 | 0.00 | 0.00 | 0.00 | 39 | 1015.5 |
| 20260503183303 | 60 | 260 | 7.8 | 18.2 | 0.00 | 0.00 | 0.00 | 36 | 1015.7 |
| 20260503183002 | 60 | 266 | 7.8 | 18.2 | 0.00 | 0.00 | 0.00 | 36 | 1015.7 |
| 20260503182702 | 60 | 270 | 7.0 | 13.0 | 0.00 | 0.00 | 0.00 | 36 | 1015.6 |
| 20260503182402 | 61 | 271 | 7.8 | 13.0 | 0.00 | 0.00 | 0.00 | 35 | 1015.7 |
| 20260503182102 | 61 | 268 | 7.8 | 13.0 | 0.00 | 0.00 | 0.00 | 36 | 1015.6 |
| 20260503181802 | 61 | 261 | 7.8 | 13.9 | 0.00 | 0.00 | 0.00 | 36 | 1015.7 |
| 20260503181504 | 60 | 253 | 8.7 | 16.5 | 0.00 | 0.00 | 0.00 | 36 | 1015.8 |
| 20260503181202 | 59 | 245 | 8.7 | 17.4 | 0.00 | 0.00 | 0.00 | 41 | 1015.8 |
| 20260503180903 | 59 | 247 | 9.6 | 17.4 | 0.00 | 0.00 | 0.00 | 38 | 1015.9 |
| 20260503180603 | 60 | 250 | 9.6 | 17.4 | 0.00 | 0.00 | 0.00 | 40 | 1015.9 |
| 20260503180302 | 59 | 258 | 9.6 | 16.5 | 0.00 | 0.00 | 0.00 | 41 | 1015.9 |
| 20260503180002 | 59 | 262 | 8.7 | 14.8 | 0.00 | 0.00 | 0.00 | 39 | 1016.0 |
| 20260503175703 | 60 | 266 | 8.7 | 14.8 | 0.00 | 0.00 | 0.00 | 39 | 1016.2 |
| 20260503175103 | 61 | 261 | 7.8 | 16.5 | 0.00 | 0.00 | 0.00 | 43 | 1015.9 |
| 20260503174802 | 61 | 266 | 7.8 | 16.5 | 0.00 | 0.00 | 0.00 | 39 | 1016.0 |
| 20260503174502 | 60 | 268 | 8.7 | 16.5 | 0.00 | 0.00 | 0.00 | 42 | 1016.0 |
| 20260503174202 | 60 | 274 | 7.8 | 16.5 | 0.00 | 0.00 | 0.00 | 40 | 1016.1 |
| 20260503173903 | 60 | 267 | 7.8 | 14.8 | 0.00 | 0.00 | 0.00 | 44 | 1016.1 |
| 20260503173302 | 59 | 248 | 7.8 | 12.2 | 0.00 | 0.00 | 0.00 | 42 | 1016.2 |
| 20260503173002 | 60 | 252 | 7.8 | 13.0 | 0.00 | 0.00 | 0.00 | 43 | 1016.3 |
| 20260503172702 | 60 | 257 | 7.0 | 13.0 | 0.00 | 0.00 | 0.00 | 42 | 1016.2 |
| 20260503172403 | 59 | 267 | 7.8 | 13.9 | 0.00 | 0.00 | 0.00 | 43 | 1016.3 |
| 20260503172103 | 59 | 265 | 7.0 | 13.9 | 0.00 | 0.00 | 0.00 | 45 | 1016.5 |
| 20260503171802 | 58 | 268 | 7.8 | 13.9 | 0.00 | 0.00 | 0.00 | 42 | 1016.4 |
| 20260503171502 | 58 | 266 | 7.8 | 13.0 | 0.00 | 0.00 | 0.00 | 46 | 1016.4 |
| 20260503170903 | 59 | 255 | 7.8 | 13.9 | 0.00 | 0.00 | 0.00 | 43 | 1016.5 |
| 20260503170602 | 59 | 249 | 7.0 | 13.9 | 0.00 | 0.00 | 0.00 | 42 | 1016.7 |
| 20260503170302 | 59 | 249 | 7.0 | 13.0 | 0.00 | 0.00 | 0.00 | 46 | 1016.7 |
| 20260503150903 | 52 | 257 | 7.8 | 14.8 | 0.00 | 0.01 | 0.00 | 45 | 1017.9 |
| 20260503150603 | 52 | 253 | 8.7 | 14.8 | 0.00 | 0.01 | 0.00 | 48 | 1018.0 |
| 20260503150302 | 53 | 251 | 7.8 | 15.6 | 0.00 | 0.01 | 0.00 | 49 | 1018.0 |
| 20260503140303 | 49 | 262 | 5.2 | 11.3 | 0.00 | 0.01 | 0.00 | 50 | 1018.1 |
| 20260503130903 | 44 | 248 | 2.6 | 7.0 | 0.00 | 0.01 | 0.00 | 68 | 1018.3 |
| 20260503130603 | 44 | 256 | 2.6 | 7.0 | 0.00 | 0.01 | 0.00 | 69 | 1018.3 |
| 20260503130303 | 44 | 259 | 3.5 | 7.0 | 0.00 | 0.01 | 0.00 | 70 | 1018.4 |
| 20260503110604 | 32 | 0 | 0.0 | 0.0 | 0.00 | 0.01 | 0.00 | 93 | 1017.5 |
| 20260503110303 | 32 | 0 | 0.0 | 0.0 | 0.00 | 0.01 | 0.00 | 93 | 1017.5 |
| 20260503090300 | 33 | 0 | 0.0 | 0.0 | 0.00 | 0.01 | 0.00 | 91 | 1016.9 |
| 20260503081200 | 34 | 0 | 0.0 | 0.0 | 0.00 | 0.01 | 0.00 | 90 | 1016.9 |
| 20260503080900 | 34 | 0 | 0.0 | 0.0 | 0.00 | 0.01 | 0.00 | 90 | 1017.0 |
| 20260503080300 | 34 | 0 | 0.0 | 0.0 | 0.00 | 0.01 | 0.00 | 90 | 1016.8 |
| 20260503072700 | 36 | 0 | 0.0 | 0.0 | 0.00 | 0.01 | 0.00 | 88 | 1016.7 |
| 20260503072400 | 36 | 0 | 0.0 | 0.0 | 0.00 | 0.01 | 0.00 | 88 | 1016.7 |
| 20260503072100 | 36 | 0 | 0.0 | 0.0 | 0.00 | 0.01 | 0.00 | 88 | 1016.8 |
| 20260503071801 | 36 | 0 | 0.0 | 0.0 | 0.00 | 0.01 | 0.00 | 88 | 1016.7 |
| 20260503071200 | 37 | 0 | 0.0 | 0.0 | 0.00 | 0.01 | 0.00 | 87 | 1016.7 |
| 20260503070901 | 37 | 0 | 0.0 | 0.0 | 0.00 | 0.01 | 0.00 | 87 | 1016.7 |
| 20260503070601 | 37 | 0 | 0.0 | 0.0 | 0.00 | 0.01 | 0.00 | 87 | 1016.7 |
| 20260503070300 | 37 | 0 | 0.0 | 0.0 | 0.00 | 0.01 | 0.00 | 87 | 1016.7 |
| 20260503060301 | 38 | 0 | 0.0 | 0.0 | 0.00 | 0.01 | 0.00 | 88 | 1016.8 |
| 20260503054501 | 38 | 0 | 0.0 | 1.7 | 0.00 | 0.01 | 0.00 | 88 | 1016.8 |
| 20260503054200 | 38 | 0 | 0.0 | 1.7 | 0.00 | 0.01 | 0.00 | 88 | 1016.8 |
| 20260503053900 | 38 | 0 | 0.0 | 0.0 | 0.00 | 0.01 | 0.00 | 88 | 1016.9 |
| 20260503053001 | 38 | 0 | 0.0 | 0.0 | 0.00 | 0.01 | 0.00 | 88 | 1017.0 |
| 20260503052700 | 38 | 0 | 0.0 | 0.0 | 0.00 | 0.01 | 0.00 | 88 | 1017.0 |
| 20260503052400 | 38 | 0 | 0.0 | 0.0 | 0.00 | 0.01 | 0.00 | 88 | 1017.0 |
| 20260503052100 | 38 | 0 | 0.0 | 0.9 | 0.00 | 0.01 | 0.00 | 88 | 1017.0 |
| 20260503051800 | 38 | 0 | 0.0 | 0.9 | 0.00 | 0.01 | 0.00 | 88 | 1016.9 |
| 20260503051500 | 38 | 0 | 0.0 | 0.9 | 0.00 | 0.01 | 0.00 | 88 | 1017.0 |
| 20260503051201 | 38 | 0 | 0.0 | 0.0 | 0.00 | 0.01 | 0.00 | 88 | 1017.0 |
| 20260503050901 | 38 | 0 | 0.0 | 0.0 | 0.00 | 0.01 | 0.00 | 89 | 1017.0 |
| 20260503050601 | 38 | 0 | 0.0 | 0.0 | 0.00 | 0.01 | 0.00 | 88 | 1017.1 |
| 20260503050301 | 38 | 0 | 0.0 | 0.0 | 0.00 | 0.01 | 0.00 | 89 | 1017.1 |
| 20260503050001 | 38 | 0 | 0.0 | 0.0 | 0.00 | 0.01 | 0.00 | 88 | 1017.1 |
| 20260503045401 | 38 | 0 | 0.0 | 0.0 | 0.00 | 0.01 | 0.00 | 88 | 1017.3 |
| 20260503045101 | 38 | 0 | 0.0 | 0.0 | 0.00 | 0.01 | 0.00 | 88 | 1017.2 |
| 20260503044801 | 38 | 0 | 0.0 | 0.0 | 0.00 | 0.01 | 0.00 | 88 | 1017.3 |
| 20260503044500 | 38 | 0 | 0.0 | 0.0 | 0.00 | 0.01 | 0.00 | 88 | 1017.3 |
| 20260503044200 | 38 | 0 | 0.0 | 0.0 | 0.00 | 0.01 | 0.00 | 88 | 1017.2 |
| 20260503043901 | 38 | 0 | 0.0 | 0.0 | 0.00 | 0.01 | 0.00 | 88 | 1017.3 |
| 20260503043601 | 38 | 0 | 0.0 | 0.0 | 0.00 | 0.01 | 0.00 | 88 | 1017.3 |
| 20260503043301 | 38 | 0 | 0.0 | 0.0 | 0.00 | 0.01 | 0.00 | 88 | 1017.2 |
| 20260503043001 | 38 | 0 | 0.0 | 0.0 | 0.00 | 0.01 | 0.00 | 88 | 1017.1 |
| 20260503042702 | 38 | 0 | 0.0 | 0.0 | 0.00 | 0.01 | 0.00 | 88 | 1017.1 |
| 20260503042401 | 38 | 0 | 0.0 | 0.0 | 0.00 | 0.01 | 0.00 | 87 | 1017.1 |
| 20260503042101 | 38 | 0 | 0.0 | 0.0 | 0.00 | 0.01 | 0.00 | 87 | 1017.1 |
| 20260503041502 | 38 | 0 | 0.0 | 0.0 | 0.00 | 0.01 | 0.00 | 87 | 1017.2 |
| 20260503041201 | 38 | 0 | 0.0 | 0.0 | 0.00 | 0.01 | 0.00 | 87 | 1017.2 |
| 20260503040901 | 38 | 0 | 0.0 | 0.0 | 0.00 | 0.01 | 0.00 | 87 | 1017.2 |
| 20260503040601 | 38 | 0 | 0.0 | 0.0 | 0.00 | 0.01 | 0.00 | 87 | 1017.2 |
| 20260503040302 | 38 | 0 | 0.0 | 0.0 | 0.00 | 0.01 | 0.00 | 87 | 1017.3 |
| 20260503040004 | 38 | 0 | 0.0 | 0.0 | 0.00 | 0.01 | 0.00 | 87 | 1017.3 |
| 20260503035701 | 38 | 0 | 0.0 | 0.0 | 0.00 | 0.01 | 0.01 | 87 | 1017.3 |
| 20260503035401 | 38 | 0 | 0.0 | 0.0 | 0.00 | 0.01 | 0.01 | 86 | 1017.3 |
| 20260503035101 | 38 | 0 | 0.0 | 0.0 | 0.00 | 0.01 | 0.01 | 86 | 1017.3 |
| 20260503034801 | 38 | 0 | 0.0 | 0.0 | 0.00 | 0.01 | 0.01 | 86 | 1017.3 |
| 20260503034501 | 38 | 0 | 0.0 | 0.0 | 0.00 | 0.01 | 0.01 | 86 | 1017.3 |
| 20260503034201 | 38 | 0 | 0.0 | 0.0 | 0.00 | 0.01 | 0.01 | 86 | 1017.3 |
| 20260503033901 | 38 | 0 | 0.0 | 0.0 | 0.00 | 0.01 | 0.01 | 86 | 1017.3 |
| 20260503033301 | 38 | 0 | 0.0 | 0.0 | 0.00 | 0.01 | 0.01 | 85 | 1017.4 |
| 20260503033001 | 38 | 0 | 0.0 | 0.0 | 0.00 | 0.01 | 0.01 | 85 | 1017.4 |
| 20260503032701 | 38 | 0 | 0.0 | 0.0 | 0.00 | 0.01 | 0.01 | 85 | 1017.4 |
| 20260503032401 | 39 | 0 | 0.0 | 0.0 | 0.00 | 0.01 | 0.01 | 85 | 1017.4 |
| 20260503032101 | 39 | 0 | 0.0 | 0.0 | 0.00 | 0.01 | 0.01 | 85 | 1017.4 |
| 20260503031801 | 39 | 0 | 0.0 | 0.0 | 0.00 | 0.01 | 0.01 | 85 | 1017.4 |